Location: Burzi?i
(45.0869°N, 16.0577°E)
Time: 11:12:28
(UTC+00:00)

Cosmos 1455 - Pass Details

Date: 29 October 2020
Orbit: 499 x 521 km, 82.5° (Epoch: 28 November)

Event Time Altitude Azimuth Distance (km) Brightness Sun altitude
Rises 17:51:24 0° 201° (SSW) 2,597 6.0 -22.4°
Reaches altitude 10° 17:53:34 10° 207° (SSW) 1,721 5.1 -22.7°
Maximum altitude 17:57:13 47° 282° (WNW) 686 3.1 -23.4°
Drops below altitude 10° 18:00:56 10° 357° (N) 1,749 4.9 -24.0°
Sets 18:03:08 0° 4° (N) 2,645 5.8 -24.4°
